Tampa Macdill AFB, FL

5:46 PM EDT on April 30, 2017 (GMT -0400)
MacDill Air Force Base

Weather History for KMCF - April, 2013

Change the Weather History Date:

Thursday, April 25, 2013

  Actual Average Record
Temperature  
Mean Temperature 74 °F -  
Max Temperature 86 °F 81 °F 90 °F (2011)
Min Temperature 61 °F 63 °F 49 °F (2012)
Cooling Degree Days 8    
Growing Degree Days 24 (Base 50)    
Moisture  
Dew Point 66 °F    
Average Humidity 76    
Maximum Humidity 99    
Minimum Humidity 52    
Precipitation  
Precipitation 0.00 in - - ()
Sea Level Pressure  
Sea Level Pressure 30.18 in    
Wind  
Wind Speed 6 mph (WNW)    
Max Wind Speed 14 mph    
Max Gust Speed 17 mph    
Visibility 10 miles    
Events      
Averages and records for this station are not official NWS values.
T = Trace of Precipitation, MM = Missing Value Source: NWS Daily Summary

Daily Weather History Graph

Daily Weather History Graph

Search for Another Location

Airport or City:

Trip Planner

Search our weather history database for the weather conditions in past years. The results will help you decide how hot, cold, wet, or windy it might be!

Date:

Astronomy

Apr. 25, 2013 Rise Set
Actual Time 6:55 AM EDT 8:00 PM EDT
Civil Twilight 6:30 AM EDT 8:25 PM EDT
Nautical Twilight 6:01 AM EDT 8:54 PM EDT
Astronomical Twilight 5:32 AM EDT 9:24 PM EDT
Moon 8:10 PM EDT (4/25) 6:37 AM EDT (4/25)
Length of Visible Light 13h 54m
Length of Day
13h 05m
Full, 100% of the Moon is Illuminated
Apr 25
Full
Apr 25
Full
May 2
Last Quarter
May 9
New
May 18
First Quarter

Hourly Weather History & Observations

Time (EDT) Temp. Heat Index Dew Point Humidity Pressure Visibility Wind Dir Wind Speed Gust Speed Precip Events Conditions
12:58 AM 68.2 °F - 64.8 °F 89% 30.13 in 10.0 mi SE 5.8 mph - N/A   Clear
1:58 AM 70.5 °F - 66.2 °F 86% 30.13 in 10.0 mi SE 6.9 mph - N/A   Partly Cloudy
2:58 AM 67.6 °F - 63.7 °F 87% 30.13 in 10.0 mi Calm Calm - N/A   Clear
4:58 AM 63.0 °F - 60.4 °F 91% 30.14 in 10.0 mi Calm Calm - N/A   Clear
5:58 AM 61.5 °F - 59.5 °F 93% 30.15 in 10.0 mi Calm Calm - N/A   Clear
6:58 AM 61.2 °F - 59.9 °F 96% 30.16 in 10.0 mi East 3.5 mph - N/A   Clear
7:58 AM 67.3 °F - 66.9 °F 99% 30.18 in 10.0 mi East 2.3 mph - N/A   Clear
8:58 AM 73.8 °F - 67.3 °F 80% 30.19 in 10.0 mi South 5.8 mph - N/A   Clear
9:58 AM 76.8 °F - 68.0 °F 74% 30.20 in 10.0 mi SSE 6.9 mph - N/A   Clear
10:58 AM 80.2 °F 83.0 °F 68.4 °F 67% 30.22 in 10.0 mi South 5.8 mph - N/A   Clear
11:58 AM 83.3 °F 86.2 °F 67.8 °F 59% 30.23 in 10.0 mi WSW 5.8 mph - N/A   Clear
12:58 PM 83.8 °F 85.8 °F 65.7 °F 54% 30.22 in 10.0 mi SSE 4.6 mph - N/A   Clear
1:58 PM 86.5 °F 89.3 °F 66.9 °F 52% 30.21 in 10.0 mi Variable 6.9 mph - N/A   Clear
2:58 PM 85.8 °F 88.5 °F 66.9 °F 53% 30.19 in 10.0 mi West 8.1 mph - N/A   Clear
3:58 PM 83.8 °F 88.3 °F 70.3 °F 64% 30.17 in 10.0 mi WNW 12.7 mph - N/A   Clear
4:58 PM 82.6 °F 85.9 °F 68.9 °F 63% 30.16 in 10.0 mi WNW 13.8 mph - N/A   Clear
5:58 PM 80.2 °F 83.3 °F 69.6 °F 70% 30.16 in 10.0 mi NW 10.4 mph 17.3 mph N/A   Clear
6:58 PM 78.4 °F - 69.6 °F 74% 30.16 in 10.0 mi NNW 10.4 mph 17.3 mph N/A   Clear
7:58 PM 75.9 °F - 68.4 °F 77% 30.17 in 10.0 mi NW 9.2 mph - N/A   Clear
8:58 PM 74.3 °F - 65.3 °F 73% 30.19 in 10.0 mi NW 6.9 mph - N/A   Clear
9:58 PM 73.2 °F - 65.7 °F 77% 30.21 in 10.0 mi NNW 8.1 mph - N/A   Clear
10:58 PM 72.7 °F - 66.2 °F 80% 30.22 in 10.0 mi North 6.9 mph - N/A   Scattered Clouds
11:58 PM 70.7 °F - 65.8 °F 85% 30.23 in 10.0 mi NNE 6.9 mph - N/A   Clear